Погода в Тобольске

Погода в Тобольске : погода сейчас, прогноз погоды и архив. Всё, что Вы хотите узнать о погоде в Тобольске!

Хотите узнать прогноз погоды в Тобольске? Тогда Вам сюда: Погода в Тобольске

Поиск расширенной информации на нашем сайте:

Другие новости

Новости СМИ2

Главная страница сайта

Новости сайта

03.07.2017

Напоминаем, что на нашем специализированном сайте Метеоцентр.Азия вы можете получить высокодетализированные автоматические прогнозы погоды по пунктам России, СНГ и мира в авиационном формате (включающие направление и скорость ветра, видимость, явления погоды, количество и форму облачности, нижнюю и верхнюю границу облачности).


Погода в Тобольске - сегодня

Время (UTC), дата Ветер
(°,м/с) 
Видим.   Явления Облачность Т
(°С)
Тd
(°С)
f(%) Тe
(°С)
Pmin
(гПа)
dP
(гПа)
Po
(мм)
O2
(г/м3)
Тmin Tmax R s Состояние
почвы
21 23.07.17 тихо ()   10 км    10/0 средняя, верхняя 
[Ac und|Ci sp]
+14.8 +13.8 94 +21  1005  -0.3  749  284           
00 24.07.17 040 (СВ) 0500 м  туман  ?/?  
+15.3 +14.5 95 +25  1004.9  -0.1  749  283           
03 24.07.17 030 (СВ) 20000 м  {туман}  6/6 600 м 
[Sc]
+17.3 +16.2 93 +29  1004.3  -0.6  749  280  +14.4         
06 24.07.17 050 (СВ) 20000 м  {туман}  8/5 600 м кучево-дожд., средняя 
[Cb cap|Ac trans]
+21.8 +15.2 66 +31  1004.4  0.3  749  276           
09 24.07.17 320 (СЗ) 20000 м    4/4 600 м 
[Cu med, cong]
+23.8 +15 58 +33  1004  -0.4  749  274           
12 24.07.17 320 (СЗ) 20000 м    10/4 600 м кучево-дожд., верхняя 
[Cb cap|Ci sp]
+25.1 +13.2 48 +31  1003.8  -0.5  749  274           
15 24.07.17 300 (СЗ) 20000 м    10/5 600 м кучево-дожд., верхняя 
[Cb cap|Ci sp]
+21.8 +16.3 71 +33  1004  0.2  749  276    +26.4       
18 24.07.17 260 (З) 10 км    10/0 средняя, верхняя 
[Ac trans|Ci sp]
+17.9 +15.6 86 +29  1004.1  749  280           
21 24.07.17 270 (З) 10 км  туман поземный  6/0 верхняя 
[Ci sp]
+14.6 +13.5 93 +22  1004.4  0.1  749  284           
00 25.07.17 тихо ()   0500 м  туман  6/0 верхняя 
[Ci sp]
+13.8 +13 95 +19  1004  -0.3  749  285           
03 25.07.17 150 (ЮВ) 20000 м  {туман}  10/0 верхняя 
[Ci fib]
+21.4 +17.3 77 +34  1003.8  -0.1  749  276  +13.7         
06 25.07.17 110 (В) 20000 м  {туман}  10/6 600 м 
[Cu med, cong]
+24.9 +14.5 52 +30  1003.5  -0.2  823  301           
09 25.07.17 150 (ЮВ) 20000 м    10/6 600 м кучево-дожд., верхняя 
[Cb cap|Ci sp]
+25.2 +15.8 56 +35  1002.4  -1.1  748  272           
12 25.07.17 130 (ЮВ) 20000 м    10/8 600 м кучево-дожд., средняя 
[Cb cap|Ac und]
+23.2 +16.5 66 +35  1002  -0.4  747  274           
15 25.07.17 210 (ЮЗ) 20000 м  {ливн. осадки}  10/3 600 м кучево-дожд., средняя 
[Cb cap|Ac und]
+19.1 +17 88 +33  1002.6  0.5  748  278    +25.9  0.3     
18 25.07.17 120 (ЮВ) 10 км  {ливн. осадки}  10/3 600 м кучево-дожд., средняя 
[Cb cap|Ac und]
+17.8 +16.6 93 +31  1002.8  0.2  748  279           
21 25.07.17 180 (Ю) 10 км    10/0 верхняя 
[Ci sp]
+16 +15.1 94 +26  1002.3  -0.6  747  281           
00 26.07.17 160 (Ю) 20000 м  местами туман поземный  10/8 600 м средняя 
[Sc|Ac und]
+14 +13 94 +20  1002.8  0.5  748  284           
03 26.07.17 200 (Ю) 20000 м    10/8 600 м средняя 
[Sc|Ac und]
+17.3 +15.2 87 +27  1003.2  0.5  748  280  +13.9    0.0     
06 26.07.17 220 (ЮЗ) 20000 м    6/6 600 м 
[Sc]
+21.5 +13.8 62 +28  1003.3  0.1  748  277           
09 26.07.17 220 (ЮЗ) 20000 м    6/6 600 м 
[Cu med, cong]
+24.4 +13.2 50 +30  1003.1  -0.1  748  274           
12 26.07.17 220 (ЮЗ) 20000 м    9/6 600 м верхняя 
[Cu med, cong|Cc]
+23.8 +13.5 52 +30  1003.1  748  275           
15 26.07.17 210 (ЮЗ) 20000 м    8/3 600 м средняя, верхняя 
[Sc|Ac trans|Ci sp]
+22 +11.1 50 +25  1004.5  1.6  749  277    +25.4       
18 26.07.17 050 (СВ) 10 км    8/3 600 м средняя 
[Sc|Ac trans]
+15.8 +14.3 91 +25  1004.1  -0.8  749  282           
21 26.07.17 тихо ()   10 км    4/0 верхняя 
[Ci sp]
+14.6 +13.7 94 +21  1004.1  749  284           
Время (UTC), дата Ветер
(°,м/с) 
Видим.   Явления Облачность Т
(°С)
Тd
(°С)
f(%) Тe
(°С)
Pmin
(гПа)
dP
(гПа)
Po
(мм)
O2
(г/м3)
Тmin Tmax R s Состояние
почвы

Для получения пояснительной информации подведите курсор к названию столбца.

ПОГОДА в Тобольске - архив

Всё, что Вы хотите узнать о погоде в Тобольске - удобно и подробно!

Выберите нужную дату (начиная с 1 января 2015* года) и нажмите кнопку "Найти".
Будут отображены архивные сводки погоды по пункту Тобольск, начиная с указанной даты.


Отображать данные в формате CSV (для использования в таблицах Excel)


Внимание! Наш архив погоды предназначен исключительно для личного некоммерческого использования в познавательных целях. Если Вам необходимы официальные справки о состоянии погоды (для производственных, юридических, коммерческих и т.п. целей), обращайтесь в органы Росгидромета.

*Примечание: данная дата относится к архиву по метеостанциям СССР (Россия, СНГ, Балтия).
Архив по метеостанциям Зарубежной Европы и Азии (кроме Китая) хранится 10 дней, по другим регионам земного шара (Китай, Африка, Америка, Австралия, Океания) - 1 день.

Тобольск - район местоположения метеостанции


Название, широта, долгота, высота метеостанции:
Тобольск 58.2°ш. 68.2°д. 50 м над ур. моря [Российская Федерация]

Дополнительная информация

В oтличие oт бoльшинства пoгoдных сайтoв мы публикуем пoдрoбную метеoинфoрмацию в детальнoм прoфессиoнальнoм фoрмате.

Характеристики температуры и влажнoсти вoздуха измеряются на высoте 2 м в тени вдали oт зданий и деревьев.
Скoрoсть ветра измеряется на высoте 10 м (на урoвне рoста челoвека скoрoсть ветра ниже в 1.5-2 раза). Если метеoстанция нахoдится в гoрoде или в лесу, тo скoрoсть ветра занижена на 2-4 м/с пo сравнению с oткрытым местoм. Скoрoсть ветра над акватoриями крупных рек и oзёр, а также на вершинах хoлмoв на 2-5 м/с выше, чем в oбычных услoвиях.
Атмoсфернoе давление в разных тoчках местнoсти мoжет значительнo oтличаться oт давления на метеoстанции, в зависимoсти oт услoвий рельефа (при пoдъёме на 10 м давление пoнижается примернo на 1 мм рт.ст.).